When you browse on this site, cookies collect data to enhance your experience and personalize the content and advertising you see.
Visit our Privacy Policy to learn more. By continuing to use the site, you agree to this use of cookies and data.
  • In Hungary
  • List of Countries
  • For 7 days
  • Water Temperature
  • Weather Map
  • News
  • Weather Widgets
  • user-avatar
    Login

    Hourly Weather Dolgoe

    Today, 26 January, Sunday

    Time Temperature Precipitation Wind Pressure Humidity
    00:00 -5°C° 0 mm 6 mps 733 mmHg 81%
    01:00 -5°C° 0 mm 6 mps 734 mmHg 81%
    02:00 -5°C° 0 mm 6 mps 734 mmHg 81%
    03:00 -6°C° 0 mm 7 mps 735 mmHg 82%
    04:00 -5°C° 0 mm 6 mps 735 mmHg 82%
    05:00 -6°C° 0 mm 6 mps 736 mmHg 83%
    06:00 -6°C° 0 mm 6 mps 737 mmHg 84%
    07:00 -6°C° 0 mm 5 mps 738 mmHg 85%
    08:00 -6°C° 0 mm 5 mps 738 mmHg 86%
    09:00 -6°C° 0 mm 5 mps 739 mmHg 89%
    10:00 -6°C° 0 mm 5 mps 739 mmHg 88%
    11:00 -5°C° 0 mm 5 mps 740 mmHg 86%
    12:00 -5°C° 0 mm 6 mps 741 mmHg 84%
    13:00 -5°C° 0 mm 5 mps 740 mmHg 84%
    14:00 -5°C° 0 mm 5 mps 740 mmHg 84%
    15:00 -5°C° 0 mm 5 mps 740 mmHg 84%
    16:00 -5°C° 0 mm 5 mps 740 mmHg 85%
    17:00 -5°C° 0 mm 5 mps 740 mmHg 86%
    18:00 -5°C° 0 mm 6 mps 740 mmHg 88%
    19:00 -5°C° 0 mm 6 mps 739 mmHg 89%
    20:00 -4°C° 0 mm 7 mps 739 mmHg 90%
    21:00 -5°C° 0 mm 8 mps 739 mmHg 91%
    22:00 -5°C° 0.1 mm 8 mps 738 mmHg 91%
    23:00 -4°C° 0.1 mm 8 mps 738 mmHg 92%

    Tomorrow, 27 January, Monday

    Time Temperature Precipitation Wind Pressure Humidity
    00:00 -4°C° 0.1 mm 8 mps 738 mmHg 92%
    01:00 -4°C° 0 mm 8 mps 738 mmHg 92%
    02:00 -2°C° 0 mm 7 mps 738 mmHg 91%
    03:00 -2°C° 0 mm 7 mps 738 mmHg 91%
    04:00 -2°C° 0 mm 7 mps 738 mmHg 92%
    05:00 -2°C° 0 mm 7 mps 738 mmHg 93%
    06:00 -2°C° 0 mm 7 mps 738 mmHg 94%
    07:00 -2°C° 0 mm 6 mps 739 mmHg 95%
    08:00 -2°C° 0 mm 6 mps 739 mmHg 96%
    09:00 -1°C° 0 mm 5 mps 739 mmHg 97%
    10:00 -1°C° 0 mm 5 mps 740 mmHg 97%
    11:00 -1°C° 0 mm 4 mps 740 mmHg 98%
    12:00 0°C° 0 mm 3 mps 741 mmHg 98%
    13:00 0°C° 0 mm 3 mps 741 mmHg 98%
    14:00 0°C° 0 mm 3 mps 741 mmHg 98%
    15:00 +1°C° 0 mm 2 mps 741 mmHg 98%
    16:00 -1°C° 0.1 mm 2 mps 742 mmHg 98%
    17:00 -1°C° 0.1 mm 2 mps 742 mmHg 98%
    18:00 -1°C° 0.1 mm 2 mps 742 mmHg 98%
    19:00 -1°C° 0.2 mm 2 mps 742 mmHg 98%
    20:00 -1°C° 0.2 mm 2 mps 742 mmHg 98%
    21:00 -1°C° 0.2 mm 2 mps 742 mmHg 98%
    22:00 -1°C° 0.3 mm 2 mps 742 mmHg 98%
    23:00 -1°C° 0.3 mm 3 mps 742 mmHg 98%

    Day after tomorrow, 28 January, Tuesday

    Time Temperature Precipitation Wind Pressure Humidity
    00:00 -1°C° 0.3 mm 3 mps 742 mmHg 98%
    01:00 -1°C° 0.5 mm 3 mps 742 mmHg 98%
    02:00 -1°C° 0.5 mm 3 mps 742 mmHg 98%
    03:00 -1°C° 0.5 mm 3 mps 741 mmHg 98%
    04:00 -2°C° 0.3 mm 3 mps 741 mmHg 97%
    05:00 -2°C° 0.3 mm 3 mps 741 mmHg 97%
    06:00 -2°C° 0.3 mm 3 mps 740 mmHg 97%
    07:00 -2°C° 0.2 mm 3 mps 740 mmHg 97%
    08:00 -2°C° 0.2 mm 3 mps 740 mmHg 96%
    09:00 -2°C° 0.2 mm 3 mps 740 mmHg 96%
    10:00 -3°C° 0.1 mm 4 mps 740 mmHg 96%
    11:00 -2°C° 0.1 mm 4 mps 740 mmHg 96%
    12:00 -2°C° 0.1 mm 4 mps 740 mmHg 97%
    13:00 -2°C° 0.2 mm 4 mps 740 mmHg 97%
    14:00 -2°C° 0.2 mm 4 mps 739 mmHg 98%
    15:00 -2°C° 0.2 mm 4 mps 739 mmHg 98%
    16:00 -2°C° 0.1 mm 4 mps 739 mmHg 98%
    17:00 -2°C° 0.1 mm 4 mps 739 mmHg 97%
    18:00 -2°C° 0.1 mm 4 mps 739 mmHg 97%
    19:00 -2°C° 0.1 mm 4 mps 739 mmHg 96%
    20:00 -2°C° 0.1 mm 4 mps 739 mmHg 96%
    21:00 -2°C° 0.1 mm 4 mps 739 mmHg 96%
    22:00 -2°C° 0 mm 4 mps 739 mmHg 95%
    23:00 -2°C° 0 mm 4 mps 739 mmHg 95%

    29 January, Wednesday

    Time Temperature Precipitation Wind Pressure Humidity
    00:00 -2°C° 0 mm 4 mps 739 mmHg 95%
    01:00 -2°C° 0 mm 4 mps 739 mmHg 95%
    02:00 -1°C° 0 mm 3 mps 739 mmHg 95%
    03:00 -1°C° 0 mm 3 mps 739 mmHg 95%
    04:00 -1°C° 0 mm 3 mps 739 mmHg 95%
    05:00 -1°C° 0 mm 3 mps 738 mmHg 95%
    06:00 -1°C° 0 mm 3 mps 738 mmHg 95%
    07:00 -1°C° 0 mm 3 mps 738 mmHg 96%
    08:00 -1°C° 0 mm 3 mps 738 mmHg 97%
    09:00 -1°C° 0 mm 3 mps 738 mmHg 97%
    10:00 -1°C° 0 mm 4 mps 737 mmHg 98%
    11:00 -1°C° 0 mm 4 mps 737 mmHg 99%
    12:00 -1°C° 0 mm 4 mps 737 mmHg 99%
    13:00 -1°C° 0.1 mm 4 mps 736 mmHg 99%
    14:00 -1°C° 0.1 mm 5 mps 736 mmHg 99%
    15:00 -1°C° 0.1 mm 5 mps 735 mmHg 99%
    16:00 -1°C° 0.2 mm 5 mps 735 mmHg 98%
    17:00 -1°C° 0.2 mm 5 mps 735 mmHg 98%
    18:00 -3°C° 0.2 mm 6 mps 734 mmHg 97%
    19:00 -3°C° 0.3 mm 6 mps 734 mmHg 97%
    20:00 -3°C° 0.3 mm 6 mps 733 mmHg 97%
    21:00 -3°C° 0.3 mm 6 mps 733 mmHg 96%
    22:00 -3°C° 0.3 mm 6 mps 733 mmHg 96%
    23:00 -3°C° 0.3 mm 6 mps 732 mmHg 96%

    30 January, Thursday

    Time Temperature Precipitation Wind Pressure Humidity
    00:00 -3°C° 0.3 mm 6 mps 732 mmHg 96%
    01:00 -3°C° 0.1 mm 6 mps 731 mmHg 97%
    02:00 -1°C° 0.1 mm 5 mps 731 mmHg 97%
    03:00 -1°C° 0.1 mm 5 mps 730 mmHg 98%
    04:00 0°C° 0.3 mm 5 mps 729 mmHg 98%
    05:00 -1°C° 0.3 mm 6 mps 729 mmHg 98%
    06:00 -1°C° 0.3 mm 6 mps 728 mmHg 98%
    07:00 -1°C° 0.9 mm 6 mps 728 mmHg 97%
    08:00 -2°C° 0.9 mm 6 mps 728 mmHg 97%
    09:00 -2°C° 0.9 mm 6 mps 728 mmHg 96%
    10:00 -2°C° 0.1 mm 6 mps 728 mmHg 94%
    11:00 -3°C° 0.1 mm 7 mps 728 mmHg 91%
    12:00 -4°C° 0.1 mm 8 mps 728 mmHg 89%
    13:00 -4°C° 0 mm 8 mps 729 mmHg 88%
    14:00 -3°C° 0 mm 7 mps 729 mmHg 87%
    15:00 -3°C° 0 mm 7 mps 730 mmHg 87%
    16:00 -3°C° 0 mm 7 mps 730 mmHg 88%
    17:00 -3°C° 0 mm 7 mps 730 mmHg 89%
    18:00 -4°C° 0 mm 6 mps 731 mmHg 90%
    19:00 -4°C° 0.2 mm 7 mps 731 mmHg 90%
    20:00 -3°C° 0.2 mm 7 mps 731 mmHg 91%
    21:00 -3°C° 0.2 mm 7 mps 731 mmHg 91%
    22:00 -3°C° 0 mm 6 mps 731 mmHg 89%
    23:00 -4°C° 0 mm 6 mps 731 mmHg 88%

    31 January, Friday

    Time Temperature Precipitation Wind Pressure Humidity
    00:00 -4°C° 0 mm 5 mps 731 mmHg 87%
    01:00 -4°C° 0 mm 5 mps 731 mmHg 88%
    02:00 -4°C° 0 mm 5 mps 731 mmHg 90%
    03:00 -5°C° 0 mm 5 mps 731 mmHg 91%
    04:00 -4°C° 0 mm 4 mps 731 mmHg 92%
    05:00 -4°C° 0 mm 4 mps 731 mmHg 92%
    06:00 -4°C° 0 mm 4 mps 731 mmHg 93%
    07:00 -4°C° 0 mm 4 mps 731 mmHg 93%
    08:00 -4°C° 0 mm 4 mps 731 mmHg 94%
    09:00 -4°C° 0 mm 4 mps 731 mmHg 94%
    10:00 -4°C° 0.1 mm 3 mps 731 mmHg 94%
    11:00 -2°C° 0.1 mm 3 mps 731 mmHg 95%
    12:00 -2°C° 0.1 mm 2 mps 731 mmHg 95%
    13:00 -2°C° 0.1 mm 2 mps 730 mmHg 95%
    14:00 0°C° 0.1 mm 1 mps 730 mmHg 95%
    15:00 +1°C° 0.1 mm 1 mps 730 mmHg 95%
    16:00 0°C° 0.1 mm 1 mps 731 mmHg 96%
    17:00 0°C° 0.1 mm 1 mps 731 mmHg 96%
    18:00 -1°C° 0.1 mm 0 mps 731 mmHg 97%
    19:00 -1°C° 0 mm 1 mps 731 mmHg 96%
    20:00 -1°C° 0 mm 1 mps 732 mmHg 96%
    21:00 -3°C° 0 mm 2 mps 732 mmHg 96%
    22:00 -3°C° 0 mm 2 mps 732 mmHg 96%
    23:00 -4°C° 0 mm 2 mps 733 mmHg 96%
    Show more